Location: Unspecified
(0.0000°N, 0.0000°E)
Time: 15:53:28
(UTC+00:00)

Vanguard 3 - Pass Details

Date: 16 December 2017
Orbit: 508 x 3264 km, 33.3° (Epoch: 22 July)

Event Time Altitude Azimuth Distance (km) Brightness Sun altitude
Rises 04:07:26 0° 223° (SW) 7,218 11.8 -24.7°
Reaches altitude 10° 04:13:40 10° 212° (SSW) 6,190 11.5 -23.3°
Maximum altitude 04:29:16 29° 159° (SSE) 4,207 11.2 -19.7°
Drops below altitude 10° 04:40:57 10° 104° (ESE) 4,674 12.3 -17.1°
Sets 04:44:43 0° 93° (E) 5,286 12.6 -16.2°
